Location: Beadle
(51.4667°N, 109.0000°W)
Time: 17:16:20
(UTC+00:00)

O/OREOS (USA 219) - Pass Details

Date: 04 July 2022
Orbit: 621 x 646 km, 72.0° (Epoch: 22 May)

Event Time Altitude Azimuth Distance (km) Brightness Sun altitude
Rises 06:38:23 0° 331° (NNW) 2,966 ? -15.1°
Reaches altitude 10° 06:40:41 10° 333° (NNW) 2,054 ? -15.2°
Maximum altitude 06:45:19 83° 61° (ENE) 658 ? -15.3°
Enters shadow 06:48:06 24° 149° (SSE) 1,347 ? -15.3°
